Location: Marcé
(47.5801°N, 0.3280°W)
Time: 23:47:54
(UTC+01:00)

Transit 2A - Pass Details

Date: 06 December 2021
Orbit: 591 x 967 km, 66.7° (Epoch: 16 January)

Event Time Altitude Azimuth Distance (km) Brightness Sun altitude
Rises 00:10:34 0° 192° (SSW) 3,287 - -63.6°
Reaches altitude 10° 00:12:57 10° 187° (S) 2,418 - -63.7°
Maximum altitude 00:18:19 48° 115° (ESE) 1,147 - -64.0°
Drops below altitude 10° 00:24:12 10° 43° (NE) 2,644 - -64.3°
Sets 00:26:54 0° 38° (NE) 3,625 - -64.4°
